Weather History for KSGF - November, 2014

Change the Weather History Date:

Sunday, November 16, 2014

  Actual Average Record
Temperature  
Mean Temperature 27 °F 46 °F  
Max Temperature 33 °F 57 °F 76 °F (1941)
Min Temperature 21 °F 35 °F 8 °F (1932)
Degree Days  
Heating Degree Days 38 19  
Month to date heating degree days 377 253  
Since 1 July heating degree days 609 561  
Cooling Degree Days 0 0  
Month to date cooling degree days 0 0  
Year to date cooling degree days 1470 1387  
Moisture  
Dew Point 24 °F    
Average Humidity 77    
Maximum Humidity 92    
Minimum Humidity 61    
Precipitation  
Precipitation 0.13 in 0.14 in 1.52 in (1964)
Month to date precipitation 1.61 2.28  
Year to date precipitation 36.13 40.59  
Snow  
Snow 1.50 in - - ()
Month to date snowfall 1.5  
Since 1 July snowfall 1.5  
Since 1 September snowfall 1.5  
Snow Depth 0.00 in    
Sea Level Pressure  
Sea Level Pressure 30.11 in    
Wind  
Wind Speed 6 mph (NW)    
Max Wind Speed 16 mph    
Max Gust Speed 20 mph    
Visibility 5 miles    
Events Fog , Snow    
T = Trace of Precipitation, MM = Missing Value Source: NWS Daily Summary

Daily Weather History Graph

Daily Weather History Graph

Search for Another Location

Airport or City:

Trip Planner

Search our weather history database for the weather conditions in past years. The results will help you decide how hot, cold, wet, or windy it might be!

Date:

Astronomy

Nov. 16, 2014 Rise Set
Actual Time 6:53 AM CST 5:02 PM CST
Civil Twilight 6:25 AM CST 5:30 PM CST
Nautical Twilight 5:54 AM CST 6:01 PM CST
Astronomical Twilight 5:23 AM CST 6:32 PM CST
Moon 1:08 AM CST (11/16) 1:49 PM CST (11/16)
Length of Visible Light 11h 04m
Length of Day
10h 08m
Waning Crescent, 31% of the Moon is Illuminated
Nov 16
Waning Crescent
Nov 22
New
Nov 29
First Quarter
Dec 6
Full
Dec 14
Last Quarter

Hourly Weather History & Observations

Time (CST) Temp. Windchill Dew Point Humidity Pressure Visibility Wind Dir Wind Speed Gust Speed Precip Events Conditions
12:52 AM 32.0 °F 26.4 °F 23.0 °F 69% 30.17 in 10.0 mi South 5.8 mph - N/A   Overcast
1:52 AM 32.0 °F 27.5 °F 23.0 °F 69% 30.17 in 10.0 mi South 4.6 mph - N/A   Overcast
2:52 AM 32.0 °F 28.7 °F 24.1 °F 73% 30.16 in 10.0 mi SW 3.5 mph - N/A   Overcast
3:52 AM 32.0 °F - 25.0 °F 75% 30.14 in 10.0 mi Calm Calm - N/A   Overcast
4:52 AM 32.0 °F - 24.1 °F 73% 30.12 in 10.0 mi Calm Calm - N/A   Mostly Cloudy
5:52 AM 30.0 °F - 25.0 °F 82% 30.12 in 10.0 mi Calm Calm - N/A   Overcast
6:52 AM 32.0 °F - 26.1 °F 79% 30.12 in 10.0 mi Calm Calm - N/A   Overcast
7:52 AM 32.0 °F 27.5 °F 24.1 °F 73% 30.13 in 10.0 mi North 4.6 mph - N/A   Overcast
8:38 AM 32.0 °F 27.5 °F 25.0 °F 75% 30.11 in 2.5 mi NNW 4.6 mph - 0.00 in Snow Light Snow
8:47 AM 32.0 °F 27.5 °F 24.8 °F 75% 30.11 in 3.0 mi NNW 4.6 mph - 0.00 in Snow Light Snow
8:52 AM 32.0 °F 28.7 °F 25.0 °F 75% 30.14 in 3.0 mi NW 3.5 mph - 0.00 in Snow Light Snow
9:17 AM 32.0 °F 27.5 °F 26.1 °F 79% 30.13 in 1.8 mi WNW 4.6 mph - 0.01 in Snow Light Snow
9:31 AM 30.9 °F 26.2 °F 26.1 °F 82% 30.13 in 2.5 mi NNW 4.6 mph - 0.01 in Snow Light Snow
9:45 AM 30.9 °F 21.7 °F 26.1 °F 82% 30.12 in 1.8 mi NNW 11.5 mph - 0.01 in Snow Light Snow
9:52 AM 30.0 °F 21.1 °F 27.0 °F 88% 30.16 in 1.5 mi NNW 10.4 mph - 0.01 in Snow Light Snow
10:22 AM 30.0 °F 22.4 °F 27.0 °F 88% 30.13 in 0.8 mi NNW 8.1 mph - 0.02 in Snow Light Snow
10:45 AM 30.0 °F 22.4 °F 28.0 °F 92% 30.14 in 1.5 mi NNW 8.1 mph - 0.02 in Snow Light Snow
10:50 AM 30.2 °F 22.6 °F 28.4 °F 93% 30.13 in 2.0 mi NNW 8.1 mph - 0.02 in Snow Light Snow
10:52 AM 30.0 °F 23.2 °F 28.0 °F 92% 30.17 in 2.0 mi NNW 6.9 mph - 0.02 in Snow Light Snow
11:03 AM 30.9 °F 22.8 °F 27.0 °F 85% 30.13 in 3.0 mi NNW 9.2 mph - 0.01 in Snow Light Snow
11:06 AM 30.9 °F 23.5 °F 27.0 °F 85% 30.13 in 2.5 mi NNW 8.1 mph - 0.01 in Snow Light Snow
11:15 AM 30.9 °F 22.8 °F 27.0 °F 85% 30.13 in 1.5 mi NNW 9.2 mph - 0.01 in Snow Light Snow
11:47 AM 30.2 °F 21.9 °F 26.6 °F 86% 30.13 in 2.0 mi NW 9.2 mph - 0.02 in Snow Light Snow
11:48 AM 30.0 °F 21.7 °F 27.0 °F 88% 30.16 in 2.0 mi NW 9.2 mph - 0.02 in Snow Light Snow
11:57 AM 30.0 °F 23.2 °F 27.0 °F 88% 30.12 in 1.5 mi NW 6.9 mph - 0.00 in Snow Light Snow
12:13 PM 30.0 °F 21.7 °F 27.0 °F 88% 30.11 in 0.8 mi NNW 9.2 mph - 0.01 in Snow Light Snow
12:20 PM 28.9 °F 19.2 °F 27.0 °F 92% 30.10 in 0.5 mi North 11.5 mph - 0.02 in Fog , Snow Snow
12:27 PM 28.9 °F 21.1 °F 27.0 °F 92% 30.10 in 0.2 mi NNW 8.1 mph - 0.03 in Fog , Snow Heavy Snow
12:52 PM 30.0 °F 21.7 °F 27.0 °F 88% 30.11 in 0.8 mi NNW 9.2 mph - 0.06 in Snow Light Snow
1:03 PM 30.0 °F 21.7 °F 27.0 °F 88% 30.07 in 1.2 mi NNW 9.2 mph - 0.00 in Snow Light Snow
1:16 PM 28.9 °F 18.6 °F 26.1 °F 89% 30.07 in 0.8 mi NNW 12.7 mph - 0.01 in Snow Light Snow
1:28 PM 28.9 °F 21.1 °F 26.1 °F 89% 30.07 in 1.0 mi NW 8.1 mph - 0.01 in Snow Light Snow
1:45 PM 28.0 °F 17.0 °F 25.0 °F 88% 30.07 in 2.0 mi NW 13.8 mph - 0.02 in Snow Light Snow
1:52 PM 28.4 °F 17.5 °F 24.8 °F 86% 30.07 in 2.0 mi NW 13.8 mph - N/A Snow Light Snow
2:00 PM 28.0 °F 17.5 °F 24.1 °F 85% 30.07 in 1.5 mi NW 12.7 mph - 0.00 in Snow Light Snow
2:23 PM 28.0 °F 17.0 °F 24.1 °F 85% 30.07 in 2.0 mi NW 13.8 mph - 0.00 in Snow Light Snow
2:32 PM 28.0 °F 17.5 °F 23.0 °F 81% 30.06 in 2.5 mi NW 12.7 mph - 0.00 in Snow Light Snow
2:44 PM 28.0 °F 18.6 °F 23.0 °F 81% 30.06 in 2.5 mi NNW 10.4 mph - 0.00 in Snow Light Snow
2:52 PM 27.0 °F 18.0 °F 23.0 °F 85% 30.09 in 5.0 mi NW 9.2 mph - 0.00 in Snow Light Snow
3:24 PM 27.0 °F 15.6 °F 21.9 °F 81% 30.05 in 10.0 mi NW 13.8 mph - 0.00 in   Mostly Cloudy
3:52 PM 26.1 °F 15.6 °F 21.9 °F 84% 30.09 in 9.0 mi NW 11.5 mph - 0.00 in   Overcast
4:01 PM 26.1 °F 14.5 °F 21.9 °F 84% 30.05 in 8.0 mi NW 13.8 mph - N/A   Overcast
4:52 PM 25.0 °F 15.5 °F 21.0 °F 85% 30.08 in 8.0 mi North 9.2 mph - N/A   Overcast
5:52 PM 24.1 °F 16.0 °F 21.0 °F 88% 30.09 in 8.0 mi NW 6.9 mph - N/A   Overcast
6:52 PM 24.1 °F 15.2 °F 19.9 °F 84% 30.09 in 9.0 mi NW 8.1 mph - N/A   Overcast
7:52 PM 23.0 °F 13.1 °F 18.0 °F 81% 30.11 in 9.0 mi NW 9.2 mph - N/A   Overcast
8:49 PM 21.2 °F 10.1 °F 17.6 °F 86% 30.07 in 10.0 mi NW 10.4 mph - N/A   Overcast
8:52 PM 21.9 °F 13.4 °F 17.1 °F 82% 30.12 in 10.0 mi WNW 6.9 mph - N/A   Overcast
9:52 PM 21.0 °F 12.4 °F 15.1 °F 78% 30.14 in 10.0 mi WNW 6.9 mph - N/A   Scattered Clouds
10:52 PM 21.0 °F 11.4 °F 14.0 °F 74% 30.16 in 10.0 mi WNW 8.1 mph - N/A   Mostly Cloudy
11:52 PM 21.0 °F 12.4 °F 12.0 °F 68% 30.17 in 10.0 mi WNW 6.9 mph - N/A   Partly Cloudy